Wind_Speed
32 32 36 38 41 40 42 41 38 33 33 37 39 36 30 33 28 26 28 26 27 33 23 22 18 19 20 27 27 27 26 27 31 37 37 35 32 34 35 35 33 37 40 40 43
33 34 33 34 40 41 41 42 41 34 29 35 36 32 32 30 29 27 26 25 25 33 27 27 21 18 20 28 37 30 29 29 31 32 34 30 30 31 34 33 28 32 35 39 43
31 31 34 35 35 38 39 37 39 42 37 27 27 35 30 31 31 33 26 21 20 30 33 32 29 22 21 32 35 34 31 32 32 32 33 30 31 32 32 28 26 29 34 38 41
30 27 31 27 27 32 38 42 37 36 36 33 29 33 22 26 26 25 25 26 20 17 19 27 32 33 26 33 38 36 37 33 32 33 29 30 29 30 29 32 28 31 34 36 43
23 26 23 25 21 26 26 29 38 44 43 40 32 22 20 20 20 23 25 26 25 24 18 18 28 34 28 38 42 40 39 30 33 35 33 31 33 31 30 27 27 29 32 39 46
24 22 20 26 24 21 30 31 28 25 20 24 29 22 14 18 19 23 22 23 26 26 30 24 29 26 34 41 44 46 38 32 32 36 36 35 32 28 32 31 29 33 40 47 49
32 25 24 20 25 27 23 24 27 31 37 30 31 33 22 18 18 23 23 25 26 26 27 33 33 37 35 41 47 43 36 36 33 35 37 38 31 32 34 36 37 42 47 48 48
36 32 29 26 24 21 21 20 24 25 24 26 24 22 23 23 25 30 33 30 31 30 35 36 35 40 43 42 38 39 34 36 35 33 33 32 33 33 32 36 41 46 48 51 50
36 38 32 31 29 26 23 21 18 19 23 28 26 25 23 24 27 32 33 33 33 34 39 40 40 39 33 30 33 37 33 34 37 34 26 31 34 34 34 35 41 47 45 46 50
39 40 38 37 33 27 22 22 23 24 21 16 23 24 31 32 27 28 29 31 31 32 34 29 25 25 31 32 29 31 33 35 38 32 26 32 35 37 40 36 41 42 46 46 50
43 45 43 42 39 32 30 27 27 23 21 27 21 25 25 33 28 25 26 28 30 22 23 30 34 40 34 42 30 26 30 32 35 31 29 36 39 42 45 40 43 44 51 52 51
49 44 46 47 43 44 39 35 36 30 31 23 26 27 28 29 30 28 24 23 28 32 34 36 36 38 42 30 24 25 28 28 31 34 34 37 42 44 46 43 46 47 48 52 55
52 44 51 53 51 49 43 42 38 35 32 27 26 25 26 32 32 32 29 28 28 27 31 36 37 38 39 31 26 24 27 29 31 33 31 35 43 44 45 45 43 49 50 52 55
63 52 52 50 57 54 51 45 42 42 38 34 35 32 32 33 36 36 36 31 31 30 30 30 26 30 33 28 22 29 27 28 30 34 37 42 42 42 45 44 40 46 52 53 55
62 58 55 59 52 59 59 53 46 46 38 36 37 36 34 32 38 40 41 38 38 34 31 35 31 28 29 24 29 32 30 26 32 38 40 40 35 41 38 42 43 50 51 57 61
70 62 55 62 60 60 67 60 54 50 38 39 42 46 45 40 41 42 42 42 39 41 39 38 36 31 32 32 35 30 33 31 33 41 36 34 31 40 40 42 47 53 51 56 64
76 70 64 65 66 67 64 66 63 49 40 42 47 49 47 47 47 36 38 42 43 43 45 39 37 34 30 33 35 34 33 32 32 37 40 38 36 39 43 47 53 51 55 59 66
77 76 71 71 71 74 72 65 62 48 49 50 52 55 55 56 57 45 38 35 37 41 45 45 39 39 33 29 31 36 36 37 33 35 40 41 40 43 48 52 52 55 59 64 67
86 80 78 76 82 81 80 69 52 54 57 58 58 51 52 55 58 53 39 38 43 46 45 45 38 38 38 36 33 37 37 37 35 35 36 44 44 52 51 55 56 58 62 66 69
93 87 80 85 89 88 82 71 67 58 60 62 58 55 53 58 59 54 44 41 43 53 43 47 48 47 44 45 46 40 40 41 38 34 40 47 47 54 56 54 56 59 63 67 71
93 92 87 91 89 91 80 75 75 66 62 69 66 58 55 60 62 61 51 50 52 61 43 47 47 48 50 53 49 47 43 42 40 39 41 46 48 54 59 60 59 64 66 70 73
108 109 98 100 100 95 86 82 79 71 66 67 71 63 61 62 64 66 58 60 58 52 47 44 47 53 50 47 47 47 48 44 42 40 46 49 47 57 61 62 61 64 68 73 75
120 108 110 108 105 95 93 91 83 83 72 68 73 77 70 68 66 72 68 62 62 58 52 49 41 49 50 51 49 48 49 49 48 52 55 49 58 60 64 66 68 69 72 75 78
126 120 117 111 109 99 98 93 94 85 80 77 75 72 69 69 70 75 71 68 66 64 66 56 46 47 48 49 51 50 48 49 50 56 51 62 58 70 67 68 68 72 71 75 75
127 124 122 112 105 101 103 101 97 90 84 84 83 79 72 73 73 75 76 72 71 71 72 65 54 49 51 57 51 53 50 52 57 60 53 60 59 72 70 69 69 74 77 80 78
128 126 123 122 116 110 111 105 102 95 92 89 84 82 80 79 77 80 82 79 76 76 73 73 68 60 52 53 53 51 59 58 62 61 59 58 62 66 68 72 76 75 79 78 80
128 129 124 121 121 119 112 105 102 102 102 95 94 91 86 83 84 83 89 84 82 79 79 77 72 64 56 57 56 54 60 64 64 64 66 61 66 67 70 72 76 79 77 80 83
Wind_Direction
277 275 265 267 263 258 258 259 257 256 272 268 289 286 287 294 298 296 280 290 294 288 296 306 315 329 342 343 335 329 326 322 326 331 329 328 332 333 340 340 344 344 349 348 350
279 270 272 273 261 257 258 259 260 252 265 273 278 279 282 288 292 290 278 283 287 290 288 304 310 325 342 345 341 332 324 324 326 325 331 331 324 332 335 337 347 343 345 350 354
281 284 278 273 267 254 256 263 259 258 255 266 279 278 274 281 285 283 268 281 293 305 292 302 296 320 329 339 335 333 329 326 320 319 324 323 321 333 334 343 345 350 350 351 351
272 280 286 277 266 260 257 254 252 254 255 251 266 273 270 285 272 266 270 274 281 294 302 305 295 309 312 332 330 330 322 317 314 311 318 313 320 327 335 343 350 353 350 349 349
279 275 281 275 289 271 265 266 260 262 262 260 258 277 273 279 276 280 278 277 276 282 278 306 312 317 307 321 323 326 318 304 304 308 305 308 319 320 324 339 340 345 346 343 341
270 270 280 268 270 274 253 257 261 254 252 242 244 254 271 285 274 271 273 280 284 289 285 284 305 304 309 312 319 320 314 322 306 303 305 307 317 313 316 331 333 334 336 336 337
266 263 262 264 261 271 285 269 255 254 254 246 254 261 250 266 274 275 280 284 292 287 298 290 289 296 299 307 312 313 305 318 322 307 304 309 318 316 306 319 326 326 326 331 333
275 260 256 255 257 266 272 286 265 256 258 257 265 262 253 258 273 281 282 281 291 297 298 293 288 298 302 304 313 308 305 313 319 314 313 310 320 316 318 317 322 326 327 330 333
268 259 251 255 257 249 260 264 269 268 271 270 266 271 272 283 280 283 287 290 294 295 294 294 288 289 300 317 319 306 304 311 315 313 305 311 317 318 319 321 325 331 340 340 337
262 261 251 257 251 243 260 254 274 292 275 280 274 275 265 277 287 292 297 299 300 301 293 283 286 291 302 322 325 314 303 305 312 304 292 306 318 332 326 323 323 328 332 334 334
257 258 255 249 250 242 255 250 269 283 299 279 279 279 281 279 286 303 300 294 294 282 281 287 291 298 302 313 321 321 302 307 313 298 294 306 313 321 324 323 321 325 329 333 339
256 254 254 251 251 248 253 258 268 271 286 288 281 278 293 283 289 297 303 310 300 290 291 299 303 299 305 315 315 312 306 311 312 308 296 302 311 318 318 320 325 331 337 336 338
251 258 259 252 247 249 250 247 264 266 278 287 283 298 291 306 288 292 291 293 290 287 297 297 299 302 301 313 313 310 309 312 311 304 297 301 310 313 314 318 326 334 334 334 336
251 259 256 253 250 245 244 245 258 263 266 270 285 287 279 297 299 287 286 289 297 300 300 312 310 304 305 309 315 321 312 310 307 306 301 301 310 311 311 320 335 341 341 335 334
248 256 254 246 249 245 243 249 252 257 267 274 276 283 280 288 286 293 287 284 292 302 306 309 312 311 311 296 313 317 330 319 312 314 306 303 312 308 311 313 324 332 334 335 337
253 249 260 252 248 254 259 249 251 254 267 279 275 276 277 276 283 284 294 287 284 290 296 300 306 309 306 302 311 315 325 327 327 324 324 315 313 309 308 310 319 326 331 329 333
249 247 252 246 244 244 255 253 248 252 258 277 280 266 268 276 278 285 291 288 291 288 291 292 298 298 303 302 304 313 312 322 333 330 326 323 322 318 312 315 325 331 332 333 332
241 248 247 246 249 247 248 246 254 254 252 269 275 265 263 273 280 281 282 290 295 291 287 289 294 296 297 301 303 311 313 313 320 323 324 320 321 323 319 331 336 331 331 331 332
250 245 244 243 251 247 248 243 247 255 257 259 269 259 266 276 279 275 273 275 288 299 288 289 289 299 299 299 297 302 311 311 313 315 315 318 316 320 320 332 333 331 329 327 326
245 245 244 243 245 248 249 250 243 250 254 256 264 258 265 274 272 269 267 276 285 297 287 287 282 288 294 298 300 301 303 309 310 310 306 310 314 313 323 324 326 326 325 325 325
244 245 241 248 245 243 245 249 248 245 245 249 259 254 261 268 267 271 261 268 284 290 282 286 285 288 285 293 301 297 297 304 308 315 315 309 314 310 315 317 321 321 320 321 323
243 247 244 241 246 246 247 244 246 243 242 246 254 245 261 264 264 267 264 271 281 277 279 283 284 289 293 292 299 300 298 302 307 309 311 311 315 316 316 318 320 318 319 322 325
243 240 241 242 244 246 247 244 246 247 246 245 251 248 254 264 268 265 268 267 272 271 272 281 282 288 281 290 300 303 300 300 309 308 308 315 311 313 314 319 319 319 318 318 322
239 239 242 243 246 245 246 246 246 244 245 247 249 247 253 262 265 264 263 262 266 270 267 273 284 281 283 289 294 296 305 302 302 301 302 308 309 307 311 312 314 318 318 323 325
238 238 241 242 243 244 244 246 243 244 248 248 246 252 256 260 259 260 259 260 263 265 266 268 275 284 281 284 287 297 295 304 300 297 301 299 306 302 309 312 314 314 318 321 322
236 237 241 242 240 240 243 244 245 244 246 249 249 250 250 256 253 256 256 256 260 264 265 265 268 282 288 281 286 293 297 293 293 296 297 301 301 303 305 309 311 315 317 321 324
235 235 235 236 237 238 238 243 246 245 245 248 248 248 249 250 249 251 253 257 259 263 265 266 267 277 279 285 286 292 293 298 297 292 294 296 297 303 306 310 310 313 317 320 323
Height
10759 10759 10760 10760 10760 10761 10761 10762 10764 10766 10768 10769 10770 10769 10768 10766 10765 10764 10764 10764 10762 10761 10759 10756 10754 10752 10748 10747 10745 10742 10740 10737 10734 10730 10725 10723 10719 10715 10711 10709 10704 10699 10694 10689 10683
10754 10753 10752 10751 10751 10753 10754 10756 10759 10761 10762 10764 10765 10764 10763 10762 10761 10759 10759 10759 10758 10756 10756 10752 10750 10747 10745 10743 10741 10738 10736 10732 10729 10727 10722 10718 10714 10712 10708 10704 10699 10695 10691 10686 10679
10748 10746 10745 10744 10743 10747 10749 10750 10752 10754 10756 10758 10759 10758 10756 10756 10754 10754 10754 10753 10752 10752 10752 10749 10747 10744 10741 10739 10736 10735 10732 10728 10725 10723 10719 10715 10710 10708 10705 10700 10694 10690 10686 10681 10675
10742 10741 10739 10738 10737 10739 10742 10744 10746 10747 10748 10748 10751 10752 10749 10751 10749 10749 10749 10748 10747 10746 10745 10745 10743 10741 10737 10734 10732 10729 10728 10723 10720 10718 10716 10712 10707 10704 10700 10694 10689 10684 10681 10676 10670
10737 10737 10736 10734 10735 10735 10737 10738 10740 10742 10743 10745 10747 10745 10745 10744 10744 10744 10743 10742 10741 10740 10739 10739 10739 10737 10733 10730 10727 10724 10723 10719 10716 10713 10711 10708 10705 10700 10697 10691 10686 10680 10675 10671 10665
10732 10732 10732 10731 10732 10733 10733 10734 10734 10736 10738 10736 10737 10738 10739 10739 10738 10738 10738 10737 10737 10735 10736 10735 10734 10732 10730 10725 10722 10720 10718 10715 10710 10706 10705 10702 10700 10696 10692 10687 10682 10677 10671 10666 10660
10726 10728 10727 10727 10727 10728 10727 10728 10729 10731 10731 10731 10731 10731 10732 10733 10733 10732 10732 10732 10732 10730 10730 10729 10728 10727 10724 10721 10718 10714 10712 10709 10706 10702 10698 10696 10694 10690 10686 10682 10678 10672 10666 10660 10654
10720 10722 10722 10722 10722 10723 10723 10723 10724 10725 10725 10726 10726 10726 10726 10726 10727 10726 10727 10726 10725 10725 10723 10722 10721 10720 10719 10716 10712 10708 10706 10703 10701 10698 10694 10691 10689 10684 10680 10676 10672 10666 10660 10654 10647
10711 10714 10715 10716 10715 10717 10718 10719 10719 10719 10719 10720 10720 10721 10722 10722 10721 10720 10719 10718 10718 10718 10716 10716 10715 10714 10713 10711 10707 10702 10700 10697 10695 10692 10690 10686 10682 10678 10674 10669 10665 10660 10654 10647 10640
10702 10704 10707 10708 10710 10710 10711 10712 10714 10715 10714 10714 10714 10715 10715 10715 10715 10713 10712 10710 10709 10709 10708 10708 10707 10707 10706 10704 10700 10696 10694 10691 10689 10686 10683 10680 10676 10673 10668 10663 10658 10653 10647 10640 10633
10692 10694 10697 10699 10701 10702 10703 10706 10708 10710 10710 10710 10709 10708 10709 10709 10709 10707 10707 10706 10705 10704 10704 10702 10700 10699 10698 10697 10694 10690 10687 10685 10682 10680 10678 10674 10669 10667 10662 10657 10652 10647 10640 10633 10625
10681 10684 10686 10689 10690 10693 10695 10698 10700 10702 10704 10705 10705 10705 10705 10703 10703 10703 10701 10700 10699 10699 10697 10696 10694 10693 10691 10689 10687 10684 10682 10679 10676 10673 10672 10668 10663 10659 10656 10651 10647 10641 10634 10626 10618
10669 10672 10675 10677 10681 10683 10686 10688 10692 10694 10697 10699 10699 10699 10699 10697 10697 10696 10695 10695 10694 10693 10691 10690 10686 10686 10683 10682 10681 10680 10675 10673 10671 10668 10665 10662 10655 10652 10646 10644 10641 10634 10627 10620 10612
10656 10659 10663 10666 10670 10671 10671 10678 10683 10684 10689 10691 10693 10691 10690 10690 10689 10689 10689 10689 10688 10687 10685 10682 10679 10678 10677 10674 10674 10672 10669 10667 10665 10662 10659 10655 10651 10643 10637 10633 10632 10628 10620 10611 10603
10641 10646 10649 10654 10656 10656 10659 10666 10671 10674 10681 10683 10684 10682 10681 10682 10682 10682 10681 10681 10681 10679 10678 10675 10674 10672 10669 10668 10667 10666 10663 10660 10658 10655 10651 10646 10644 10634 10629 10626 10623 10619 10612 10603 10594
10626 10630 10635 10641 10640 10640 10645 10655 10660 10664 10674 10674 10675 10673 10671 10672 10674 10673 10673 10673 10672 10672 10670 10669 10667 10665 10663 10662 10661 10658 10656 10654 10651 10648 10644 10638 10635 10626 10621 10617 10614 10610 10604 10595 10585
10609 10613 10618 10623 10623 10624 10631 10640 10646 10658 10663 10665 10664 10662 10660 10662 10663 10664 10664 10665 10664 10664 10662 10661 10660 10658 10656 10655 10653 10652 10649 10648 10646 10641 10637 10631 10627 10621 10615 10612 10608 10600 10593 10583 10575
10589 10593 10598 10605 10603 10607 10612 10624 10640 10651 10651 10652 10652 10651 10649 10650 10653 10654 10654 10655 10655 10655 10654 10653 10652 10650 10649 10648 10646 10644 10642 10640 10638 10636 10631 10625 10620 10612 10605 10604 10598 10592 10584 10575 10567
10568 10571 10578 10586 10583 10588 10594 10612 10631 10633 10636 10638 10638 10640 10638 10638 10642 10643 10644 10643 10644 10646 10646 10644 10643 10642 10641 10639 10638 10635 10634 10631 10629 10627 10625 10617 10613 10602 10597 10596 10590 10583 10575 10566 10559
10545 10553 10561 10560 10560 10565 10576 10604 10610 10614 10619 10624 10625 10626 10627 10627 10629 10630 10631 10632 10631 10634 10635 10634 10634 10632 10631 10630 10628 10627 10624 10622 10620 10619 10616 10610 10606 10587 10590 10589 10584 10576 10567 10558 10550
10518 10528 10538 10532 10537 10541 10567 10585 10589 10596 10602 10607 10612 10612 10614 10614 10615 10619 10619 10619 10620 10623 10624 10623 10624 10621 10621 10621 10619 10617 10615 10613 10611 10609 10605 10599 10598 10580 10581 10578 10577 10567 10558 10550 10541
10497 10500 10513 10509 10508 10526 10552 10564 10571 10578 10584 10591 10596 10600 10599 10600 10603 10604 10604 10605 10608 10609 10612 10612 10613 10611 10611 10610 10608 10608 10606 10604 10602 10600 10593 10590 10587 10576 10570 10568 10566 10558 10549 10540 10531
10467 10467 10475 10479 10482 10512 10527 10542 10547 10558 10567 10575 10581 10583 10586 10585 10588 10590 10590 10591 10592 10594 10597 10601 10603 10601 10601 10600 10599 10597 10594 10592 10592 10587 10581 10582 10572 10567 10561 10558 10552 10545 10539 10529 10520
10432 10435 10439 10457 10470 10489 10503 10517 10528 10539 10547 10558 10563 10567 10572 10571 10573 10575 10575 10575 10575 10577 10580 10586 10591 10592 10591 10590 10589 10587 10583 10582 10580 10575 10575 10567 10568 10548 10555 10552 10544 10536 10528 10519 10510
10396 10401 10420 10440 10459 10473 10472 10494 10502 10521 10534 10536 10544 10553 10557 10555 10557 10559 10558 10556 10556 10559 10565 10571 10576 10578 10580 10580 10579 10579 10576 10571 10566 10562 10563 10557 10557 10538 10541 10538 10533 10525 10516 10508 10498
10365 10381 10400 10422 10429 10438 10446 10474 10487 10502 10513 10521 10529 10534 10534 10538 10542 10540 10536 10535 10538 10541 10547 10556 10561 10565 10567 10566 10568 10570 10567 10558 10556 10551 10550 10548 10542 10532 10529 10522 10515 10512 10504 10497 10489
10336 10356 10372 10389 10399 10405 10430 10461 10478 10474 10482 10501 10504 10502 10511 10519 10518 10516 10518 10520 10523 10523 10526 10536 10542 10547 10554 10552 10555 10562 10549 10547 10542 10537 10534 10534 10526 10523 10519 10513 10504 10501 10495 10485 10476